This is the latest recevied weather packets stored in our database for station/object KB3HLL. If no packets are shown the sender has not sent any weather packets the latest 10 day(s).
| Time | Temp. | Humidity | Pressure | Rain* | Wind** | Luminosity | Snow |
|---|---|---|---|---|---|---|---|
| 1777121777 | 7.22° C | 77% | 1012.1 hPa | 0 mm | - | 124 W/m² | - |
| 1777121477 | 7.22° C | 77% | 1012.1 hPa | 0 mm | - | 123 W/m² | - |
| 1777121178 | 7.22° C | 77% | 1011.8 hPa | 0 mm | - | 160 W/m² | - |
| 1777120878 | 7.22° C | 77% | 1011.6 hPa | 0 mm | - | 139 W/m² | - |
| 1777120578 | 7.22° C | 78% | 1011.9 hPa | 0 mm | - | 114 W/m² | - |
| 1777120279 | 7.22° C | 77% | 1011.9 hPa | 0 mm | - | 115 W/m² | - |
| 1777119977 | 7.22° C | 78% | 1011.8 hPa | 0 mm | - | 87 W/m² | - |
| 1777119678 | 7.22° C | 78% | 1011.8 hPa | 0 mm | - | 79 W/m² | - |
| 1777119377 | 7.22° C | 78% | 1012.1 hPa | 0 mm | - | 95 W/m² | - |
| 1777119077 | 7.22° C | 78% | 1011.6 hPa | 0 mm | - | 95 W/m² | - |
| 1777118777 | 7.22° C | 78% | 1011.7 hPa | 0 mm | - | 86 W/m² | - |
| 1777118477 | 7.22° C | 78% | 1011.9 hPa | 0 mm | - | 76 W/m² | - |
| 1777118178 | 7.22° C | 78% | 1011.6 hPa | 0 mm | - | 66 W/m² | - |
| 1777117878 | 7.22° C | 78% | 1011.6 hPa | 0 mm | - | 55 W/m² | - |
| 1777117578 | 7.22° C | 79% | 1011.6 hPa | 0 mm | - | 52 W/m² | - |
| 1777117278 | 7.22° C | 79% | 1011.3 hPa | 0 mm | - | 51 W/m² | - |
| 1777116978 | 7.78° C | 78% | 1011.2 hPa | 0 mm | - | 51 W/m² | - |
| 1777116677 | 7.78° C | 78% | 1011.2 hPa | 0 mm | - | 61 W/m² | - |
| 1777116379 | 7.78° C | 78% | 1011.1 hPa | 0 mm | - | 65 W/m² | - |
| 1777116077 | 7.78° C | 79% | 1011.1 hPa | 0 mm | - | 41 W/m² | - |
| 1777115778 | 7.78° C | 79% | 1011.2 hPa | 0 mm | - | 42 W/m² | - |
| 1777115482 | 7.78° C | 79% | 1011.2 hPa | 0 mm | - | 44 W/m² | - |
| 1777115178 | 7.78° C | 79% | 1011.2 hPa | 0 mm | - | 35 W/m² | - |
| 1777114878 | 7.78° C | 78% | 1011.1 hPa | 0 mm | - | 25 W/m² | - |
| 1777114579 | 7.78° C | 78% | 1011.3 hPa | 0 mm | - | 21 W/m² | - |
* Rain latest hour (hover to see other rain measurements)
** Current wind speed in m/s (hover to see current wind gust speed)